Regional Weather Roundup
Issued by NWS

Home | Current Version | Previous Version | Graphics & Text | Print | Product List | Glossary On
Versions: 1 2 3 4 5 6 7 8 9 10 11 12 13 14 15 16 17 18 19 20 21 22 23 24 25 26 27 28 29 30 31 32 33 34 35 36 37 38 39 40 41 42 43 44 45 46 47 48 49 50
000
ASUS45 KTFX 022310
RWRMT
MONTANA REGIONAL WEATHER ROUNDUP
NATIONAL WEATHER SERVICE GREAT FALLS MT
500 PM MDT SUN AUG 02 2015

NOTE: "FAIR" INDICATES FEW OR NO CLOUDS BELOW 12000 FEET WITH NO
SIGNIFICANT WEATHER AND/OR OBSTRUCTIONS TO VISIBILITY.

MTZ001>007-043-030000-
WEST OF THE DIVIDE

CITY           SKY/WX    TMP DP  RH WIND       PRES   REMARKS
KALISPELL      CLEAR     93  31  11 S10       29.89F
MISSOULA       SUNNY     94  22   7 CALM      29.91F
BUTTE          SUNNY     89  22   8 MISG      30.07F
MULLAN PASS    SUNNY     84  25  11 VRB5      30.14F
DEER LODGE       N/A     88  28  11 N6        30.05F
EUREKA           N/A     95  34  11 W3        29.85F HX  90
HAMILTON         N/A     90  34  13 N9        29.92F
LIBBY            N/A     97  27   8 NW6       29.85F HX  90
PLAINS           N/A    101  39  11 NW5       29.86F HX  96
RONAN            N/A     93  25   9 CALM      29.98F
THOMPSON FALLS   N/A    100  27   7 NW5       29.88F HX  93
$$

MTZ008-052>055-030000-
SOUTHWEST MONTANA

CITY           SKY/WX    TMP DP  RH WIND       PRES   REMARKS
BOZEMAN        SUNNY     88  33  14 NW6       30.02F
DILLON         SUNNY     91  29  11 NE10      30.03F
W YELLOWSTONE  LGT RAIN  84  25  11 SW7       30.15F
THREE FORKS      N/A     90  13   6 SE2       30.00F
TWIN BRIDGES     N/A     91  29  11 S7        30.01F
$$

MTZ009-010-012-014-046-048-049-054-030000-
EAST SLOPES AND CENTRAL MONTANA

CITY           SKY/WX    TMP DP  RH WIND       PRES   REMARKS
CUT BANK       SUNNY     85  46  25 S12       29.99F
GREAT FALLS    SUNNY     86  44  23 NE7       29.98F
MALMSTROM AFB  SUNNY     87  40  19 N5        29.98F
HELENA         SUNNY     93  37  14 NE7       29.96F
CONRAD           N/A     87  49  26 NE2       30.01F
$$

MTZ011-013-016-021-045-047-050-051-030000-
NORTH CENTRAL MONTANA

CITY           SKY/WX    TMP DP  RH WIND       PRES   REMARKS
HAVRE          SUNNY     86  52  30 NE13G18   29.96F
LEWISTOWN      SUNNY     85  48  27 E9        30.04F
CHINOOK          N/A     82  52  34 E12G18    29.97F
FORT BENTON      N/A     88  50  27 CALM      29.96F
$$

MTZ017>020-022>027-061-062-030000-
NORTHEAST MONTANA

CITY           SKY/WX    TMP DP  RH WIND       PRES   REMARKS
GLASGOW        SUNNY     83  45  26 N7        29.98F
JORDAN           N/A     84  46  26 CALM      30.00F
SIDNEY         SUNNY    N/A N/A N/A NW8G21    29.97S
WOLF POINT     SUNNY     87  46  24 N15G21    29.98F
MALTA            N/A     84  52  33 E1        29.96F
PLENTYWOOD       N/A     77  48  36 NW9       30.01S
POPLAR           N/A     81  45  28 N7        29.99F
SCOBEY           N/A     77  45  32 NW10      30.02S
$$

MTZ028>42-056>058-030000-
SOUTHCENTRAL AND SOUTHEAST MONTANA

CITY           SKY/WX    TMP DP  RH WIND       PRES   REMARKS
BAKER          SUNNY     86  46  24 N17       30.01F
BILLINGS       PTSUNNY   86  43  22 NE13      30.01F
LIVINGSTON     SUNNY     92  34  13 E13       30.02F
MILES CITY     SUNNY     87  47  24 E8        29.98F
FORSYTH          N/A     88  45  22 E9        29.97F
LAUREL           N/A     87  42  20 NE8       30.00F
ROUNDUP          N/A     86  40  19 E2        29.93F
$$

REGIONAL REPORTS...DAKOTAS

CITY           SKY/WX    TMP DP  RH WIND       PRES   REMARKS
WILLISTON      SUNNY     82  46  28 N10G20    29.98S
MINOT          SUNNY     78  46  32 NW15G21   29.92F
DICKINSON      SUNNY     81  45  28 N9        29.97S
CROSBY         FAIR      75  48  38 NW13      29.98S
BISMARCK       SUNNY     80  53  39 NW14G24   29.93S
GRAND FORKS    MOSUNNY   78  47  33 NW20G25   29.81F
FARGO          SUNNY     78  47  33 NW18G26   29.83S
BUFFALO SD       N/A     85  47  26 E13       29.93F
RAPID CITY     SUNNY     86  53  32 NE6       29.98F
$$

REGIONAL REPORTS...WYOMING/IDAHO/WASHINGTON

CITY           SKY/WX    TMP DP  RH WIND       PRES   REMARKS
GILLETTE       SUNNY     90  44  20 N13G21    30.00F
SHERIDAN       SUNNY     90  39  16 W15       30.00F
BUFFALO WY     SUNNY     86  39  19 N18G24    30.08S
CODY           SUNNY     82  45  26 N16       30.07F
YELLOWSTONE LA   N/A     78  32  18 VRB5      30.27F
IDAHO FALLS    MOSUNNY   95  27   9 N7        29.98F
SALMON         SUNNY     93  41  16 W5        29.88F
BOISE          MOSUNNY  101  37  11 W8        29.81F HX  95
SPOKANE        MOSUNNY   97  17   5 VRB7      29.86F HX  90
$$

REGIONAL REPORTS...ALBERTA

CITY           SKY/WX    TMP DP  RH WIND       PRES   REMARKS
EDMONTON       MOSUNNY   79  48  34 S6G20     29.95S
CALGARY        PTSUNNY   81  54  39 SE16G23   29.97F
MEDICINE HAT   MOSUNNY   86  48  26 NW7       29.96F
WATERTON GATE    N/A     82  52  34 NE7         N/A
CARDSTON         N/A     86  48  26 SE6         N/A
MILK RIVER       N/A     84  48  28 S6          N/A
ONEFOUR          N/A     82  46  28 E3          N/A
$$

REGIONAL REPORTS...SASKATCHEWAN

CITY           SKY/WX    TMP DP  RH WIND       PRES   REMARKS
SWIFT CURRENT  SUNNY     75  48  38 VRB6      30.03F
REGINA         MOSUNNY   77  48  36 NW16G22   29.99F
SASKATOON      MOSUNNY   75  50  41 NW7       30.00S
CYPRESS HILLS    N/A     73  48  40 E5          N/A
VAL MARIE        N/A     77  50  38 NE5         N/A
ROCKGLEN         N/A     72  50  46 NW7         N/A
ASSINIBOIA       N/A     79  50  36 SE5         N/A
$$


USA.gov is the U.S. government's official web portal to all federal, state and local government web resources and services.